Regional Weather Roundup
Issued by NWS

Home | Current Version | Previous Version | Graphics & Text | Print | Product List | Glossary On
Versions: 1 2 3 4 5 6 7 8 9 10 11 12 13 14 15 16 17 18 19 20 21 22 23 24 25 26 27 28 29 30 31 32 33 34 35 36 37 38 39 40 41 42 43 44 45 46 47 48 49 50
000
ASUS45 KABQ 301801
RWRNM
NEW MEXICO REGIONAL WEATHER ROUNDUP
NATIONAL WEATHER SERVICE ALBUQUERQUE NM
1200 PM MDT TUE JUN 30 2015

NOTE: "FAIR" MEANS FEW OR NO CLOUDS BELOW 12,000 FEET AGL WITH NO
       SIGNIFICANT WEATHER OR OBSTRUCTIONS TO VISION.

      THIS PRODUCT IS RELEASED AS TWO VERSIONS.  ONE VERSION NEAR
      THE TOP OF THE HOUR CONTAINING PRELIMINARY DATA FROM ALBUQUERQUE
      AND OTHER STATIONS.  A FINAL VERSION WITH ADDITIONAL DATA IS
      ISSUED ABOUT 10 MINUTES AFTER THE HOUR.

NMZ501-503-504-510>518-301900-
NORTHWEST PLATEAU/NORTHCENTRAL MOUNTAINS

CITY           SKY/WX    TMP DP  RH WIND       PRES   REMARKS
FARMINGTON     SUNNY     88  47  24 MISG      30.17F
6HR MIN TEMP:  65; 6HR MAX TEMP:  88;

SANTA FE       SUNNY     82  43  25 S10       30.29F
6HR MIN TEMP:  56; 6HR MAX TEMP:  82;

TAOS           SUNNY     79  45  29 SW5       30.35F
ANGEL FIRE     FAIR      71  50  47 W9        30.43F

$$
NMZ402-403-502-505>509-301900-
WESTCENTRAL MOUNTAINS/SOUTHWEST MOUNTAINS

CITY           SKY/WX    TMP DP  RH WIND       PRES   REMARKS
GALLUP         SUNNY     85  47  26 S13       30.26F
6HR MIN TEMP:  57; 6HR MAX TEMP:  86;

GRANTS         SUNNY     84  46  26 SE13      30.29F
SILVER CITY      N/A     82  50  32 S3        30.22F

$$
NMZ407-409-411-412-301900-
SOUTHERN DESERTS

CITY           SKY/WX    TMP DP  RH WIND       PRES   REMARKS
LORDSBURG      FAIR      88  52  29 S8        30.11F
DEMING         SUNNY     88  53  30 MISG      30.12F
6HR MIN TEMP:  68; 6HR MAX TEMP:  88;

ALAMOGORDO     MOSUNNY   86  50  28 S6        30.13F
T OR C         SUNNY     85  52  32 CALM      30.16F
6HR MIN TEMP:  67; 6HR MAX TEMP:  86;


$$
NMZ519>523-301900-
CENTRAL VALLEYS/CENTRAL HIGHLANDS

CITY           SKY/WX    TMP DP  RH WIND       PRES   REMARKS
ALBUQUERQUE    MOSUNNY   83  47  28 W3        30.23F
6HR MIN TEMP:  69; 6HR MAX TEMP:  84;

DOUBLE EAGLE   MOSUNNY   82  50  32 CALM      30.27F
MORIARTY ARPT    N/A     81  43  26 SE6       30.30F
6HR MIN TEMP:  51; 6HR MAX TEMP:  81;

CLINES CORNERS SUNNY     78  43  28 N5        30.34F
6HR MIN TEMP:  57; 6HR MAX TEMP:  78;

BELEN          FAIR      86  45  23 SE8       30.21F
6HR MIN TEMP:  67; 6HR MAX TEMP:  86;

SOCORRO        NOT AVBL

$$
NMZ524>526-539-540-301900-
SOUTHCENTRAL MOUNTAINS

CITY           SKY/WX    TMP DP  RH WIND       PRES   REMARKS
RUIDOSO        NOT AVBL

$$
NMZ527>531-301900-
NORTHEAST HIGHLANDS/NORTHEAST PLAINS

CITY           SKY/WX    TMP DP  RH WIND       PRES   REMARKS
LAS VEGAS      SUNNY     74  51  44 S9        30.35F
6HR MIN TEMP:  53; 6HR MAX TEMP:  75;

RATON          SUNNY     77  54  44 S7        30.28F
6HR MIN TEMP:  51; 6HR MAX TEMP:  78;

CLAYTON        SUNNY     87  48  25 S12G21    30.20F
6HR MIN TEMP:  63; 6HR MAX TEMP:  87;


$$
NMZ532>537-301900-
EASTCENTRAL PLAINS

CITY           SKY/WX    TMP DP  RH WIND       PRES   REMARKS
TUCUMCARI      SUNNY     88  52  29 SE7       30.14F
6HR MIN TEMP:  60; 6HR MAX TEMP:  88;

CANNON AFB     NOT AVBL
CLOVIS AIRPORT SUNNY     81  55  41 S7        30.19F

$$
NMZ028-029-538-301900-
SOUTHEAST PLAINS

CITY           SKY/WX    TMP DP  RH WIND       PRES   REMARKS
ROSWELL        SUNNY     83  60  45 CALM      30.14F
6HR MIN TEMP:  65; 6HR MAX TEMP:  84;

ARTESIA        MOSUNNY   81  63  54 SE9       30.15F
CARLSBAD       SUNNY     83  59  44 VRB6      30.12F
6HR MIN TEMP:  67; 6HR MAX TEMP:  84;

HOBBS          SUNNY     82  55  39 VRB7      30.15F


$$



USA.gov is the U.S. government's official web portal to all federal, state and local government web resources and services.